TAUSAT-1

Last updated on Thu May 05 2022 00:02:06 GMT+0000 (Coordinated Universal Time)

1 47926U 98067SC 22123.94020726 .05013963 12182-4 10618-2 0 9991 2 47926 51.5963 160.1616 0005913 352.3270 7.7661 16.30011657 64906

Satellite not in orbit